Riverbank, California, United States (95367)
Lat: 37.74N, Lon: 120.93W
Wx Zone: CAZ019
Local Info
Past Weather Observations for Sunday, September 28, 2014

NOTE: This archive is for the closest National Weather Service station to Riverbank. Information may differ from the station used for current weather conditions.

Click here for Long-term Archive

Time Weather Temperature Dewpoint Humidity Pressure Winds Precip Visibility
23:53
Clear
61°F / 16°C 55°F / 13°C 83% 29.95 in
(1014 mb)
NW 6.9 mph
(NW 11 kph)
- 10SM
23:20
Clear
61°F / 16°C 55°F / 13°C 83% 29.95 in
(1014 mb)
W 3.5 mph
(W 6 kph)
- 9SM
22:53
Clear
Hazy
63°F / 17°C 55°F / 13°C 77% 29.95 in
(1014 mb)
Calm - 2SM
22:28
Clear
Hazy
63°F / 17°C 55°F / 13°C 77% 29.95 in
(1014 mb)
NW 3.5 mph
(NW 6 kph)
- 1 3/4SM
22:21
Clear
Hazy
63°F / 17°C 55°F / 13°C 77% 29.95 in
(1014 mb)
NW 4.6 mph
(NW 7 kph)
- 2SM
21:53
Clear
Hazy
61°F / 16°C 55°F / 13°C 83% 29.95 in
(1014 mb)
NW 5.8 mph
(NW 9 kph)
- 1 3/4SM
21:29
Clear
Hazy
63°F / 17°C 55°F / 13°C 77% 29.92 in
(1013 mb)
WNW 5.8 mph
(WNW 9 kph)
- 1 1/2SM
21:22
Clear
Hazy
63°F / 17°C 55°F / 13°C 77% 29.92 in
(1013 mb)
NW 4.6 mph
(NW 7 kph)
- 2SM
21:10
Clear
Hazy
63°F / 17°C 55°F / 13°C 77% 29.92 in
(1013 mb)
WNW 5.8 mph
(WNW 9 kph)
- 1 3/4SM
21:04
Clear
Hazy
63°F / 17°C 55°F / 13°C 77% 29.92 in
(1013 mb)
NW 4.6 mph
(NW 7 kph)
- 3SM
20:53
Clear
Hazy
63°F / 17°C 55°F / 13°C 77% 29.92 in
(1013 mb)
NNW 4.6 mph
(NNW 7 kph)
- 2SM
20:31
Clear
Hazy
63°F / 17°C 55°F / 13°C 77% 29.92 in
(1013 mb)
NW 5.8 mph
(NW 9 kph)
- 2SM
19:53
Clear
Hazy
64°F / 18°C 55°F / 13°C 73% 29.92 in
(1013 mb)
NW 5.8 mph
(NW 9 kph)
- 1 1/2SM
19:45
Clear
Hazy
66°F / 19°C 55°F / 13°C 68% 29.92 in
(1013 mb)
NW 5.8 mph
(NW 9 kph)
- 1 3/4SM
18:53
Clear
66°F / 19°C 55°F / 13°C 68% 29.92 in
(1013 mb)
NNW 3.5 mph
(NNW 6 kph)
- 10SM
17:53
Clear
70°F / 21°C 55°F / 13°C 60% 29.89 in
(1012 mb)
NE 3.5 mph
(NE 6 kph)
- 10SM
16:53
Partly Cloudy
72°F / 22°C 54°F / 12°C 53% 29.89 in
(1012 mb)
NE 4.6 mph
(NE 7 kph)
- 10SM
15:53
Overcast
72°F / 22°C 54°F / 12°C 53% 29.89 in
(1012 mb)
NE 5.8 mph
(NE 9 kph)
- 10SM
14:53
Overcast
72°F / 22°C 52°F / 11°C 50% 29.89 in
(1012 mb)
Calm 0.00 in
(0.00 mm)
10SM
13:53
Overcast
Light Rain
72°F / 22°C 54°F / 12°C 53% 29.89 in
(1012 mb)
SE 4.6 mph
(SE 7 kph)
0.00 in
(0.00 mm)
10SM
12:53
Mostly Cloudy
72°F / 22°C 52°F / 11°C 50% 29.89 in
(1012 mb)
Variable 3.5 mph
(Variable 6 kph)
0.00 in
(0.00 mm)
10SM
11:53
Mostly Cloudy
Light Rain
72°F / 22°C 52°F / 11°C 50% 29.92 in
(1013 mb)
SSE 8.1 mph
(SSE 13 kph)
0.00 in
(0.00 mm)
10SM
10:53
Partly Cloudy
70°F / 21°C 52°F / 11°C 53% 29.89 in
(1012 mb)
SSE 5.8 mph
(SSE 9 kph)
- 10SM
09:53
Clear
70°F / 21°C 52°F / 11°C 53% 29.92 in
(1013 mb)
S 6.9 mph
(S 11 kph)
- 10SM
08:53
Clear
64°F / 18°C 55°F / 13°C 73% 29.89 in
(1012 mb)
S 5.8 mph
(S 9 kph)
- 10SM
07:53
Clear
63°F / 17°C 55°F / 13°C 77% 29.89 in
(1012 mb)
Variable 4.6 mph
(Variable 7 kph)
- 10SM
06:53
Clear
61°F / 16°C 55°F / 13°C 83% 29.86 in
(1011 mb)
Calm - 10SM
05:53
Overcast
61°F / 16°C 54°F / 12°C 77% 29.83 in
(1010 mb)
E 4.6 mph
(E 7 kph)
- 10SM
04:53
Overcast
61°F / 16°C 55°F / 13°C 83% 29.83 in
(1010 mb)
Calm - 10SM
03:53
Overcast
63°F / 17°C 55°F / 13°C 77% 29.8 in
(1009 mb)
E 5.8 mph
(E 9 kph)
0.00 in
(0.00 mm)
10SM
02:53
Overcast
63°F / 17°C 54°F / 12°C 73% 29.8 in
(1009 mb)
NE 6.9 mph
(NE 11 kph)
- 10SM
01:53
Overcast
63°F / 17°C 54°F / 12°C 73% 29.8 in
(1009 mb)
N 4.6 mph
(N 7 kph)
0.00 in
(0.00 mm)
10SM
00:53
Overcast
64°F / 18°C 52°F / 11°C 64% 29.8 in
(1009 mb)
E 4.6 mph
(E 7 kph)
- 10SM
Time Weather Temperature Dewpoint Humidity Pressure Winds Precip Visibility


Weather for websites

WeatherForYou.com, LLC is not responsible for any damages or problems caused by this service. Current weather conditions are obtained from the closest station including government and personal stations which may have varying degrees of accuracy. Weather forecasts are derived from the NOAA NDFD. Like all things, this site belongs to Jesus Christ... He just trusts me to maintain it. If you have any questions or comments email webmaster@weatherforyou.com

Copyright © 2014, WeatherForYou.com LLC. All rights reserved.